Tracking 20623 objects as of 4-Apr-2020
HD Live streaming from Space Station
objects crossing your sky now

FORMOSAT7-3/COSMIC2-3

Track FORMOSAT7-3/COSMIC2-3 now!
10-day predictions


NORAD ID: 44343
Int'l Code: 2019-036E
Perigee: 711.3 km
Apogee: 729.6 km
Inclination: 24.0 °
Period: 99.1 minutes
Semi major axis: 7091 km
RCS: Unknown
Launch date: June 25, 2019
Source: Taiwan (Republic of China) (ROC)
Launch site: AIR FORCE EASTERN TEST RANGE (AFETR)
aabbcc
Your satellite tracking list
Your tracking list is empty




NASA's NSSDC Master Catalog

Two Line Element Set (TLE):
1 44343U 19036E   20094.40024197 +.00000346 +00000-0 +31128-4 0  9991
2 44343 024.0037 222.0285 0012940 037.9672 322.1750 14.53780930041226
Source of the keplerian elements: AFSPC